Regional Weather Roundup
Issued by NWS

Home | Current Version | Previous Version | Graphics & Text | Print | Product List | Glossary On
Versions: 1 2 3 4 5 6 7 8 9 10 11 12 13 14 15 16 17 18 19 20 21 22 23 24 25 26 27 28 29 30 31 32 33 34 35 36 37 38 39 40 41 42 43 44 45 46 47 48 49 50
000
ASUS43 KLMK 300602
RWRKY
KENTUCKY REGIONAL WEATHER ROUNDUP
NATIONAL WEATHER SERVICE LOUISVILLE KY
200 AM EDT THU OCT 30 2014

NOTE "FAIR" INDICATES FEW OR NO CLOUDS BELOW 12,000 FEET
WITH NO SIGNIFICANT WEATHER AND/OR OBSTRUCTIONS TO VISIBILITY.

KYZ001>023-026-027-061>063-070>075-300700-
WESTERN AND SOUTH CENTRAL KENTUCKY

CITY           SKY/WX    TMP DP  RH WIND       PRES   REMARKS
PADUCAH        CLEAR     38  36  92 CALM      30.15S
HENDERSON      CLEAR     37  34  87 CALM      30.15F
OWENSBORO      CLEAR     40  37  89 CALM      30.16S
HOPKINSVILLE   CLEAR     44  40  84 CALM      30.15S
BOWLING GREEN  CLEAR     42  37  82 CALM      30.15S
GLASGOW        CLEAR     41  36  82 CALM      30.14S
$$

KYZ024-025-028>034-038-045-046-053-300700-
NORTH CENTRAL KENTUCKY

CITY           SKY/WX    TMP DP  RH WIND       PRES   REMARKS
LOUISVILLE/SDF PTCLDY    45  35  68 VRB5      30.15S
LOUISVILLE/LOU PTCLDY    42  35  76 CALM      30.16R
FORT KNOX      CLEAR     43  35  75 N2        30.13S
$$

KYZ035>037-039>044-047>052-055>060-089>105-300700-
NORTHEAST KENTUCKY

CITY           SKY/WX    TMP DP  RH WIND       PRES   REMARKS
LEXINGTON      CLEAR     43  35  73 N5        30.14R
COVINGTON      CLOUDY    44  34  67 NW7       30.13S
FRANKFORT      CLEAR     38  34  85 CALM      30.13F
$$

KYZ054-064>069-076>088-106>120-300700-
SOUTHEAST KENTUCKY

CITY           SKY/WX    TMP DP  RH WIND       PRES   REMARKS
JACKSON        CLEAR     44  35  70 CALM      30.11R
LONDON         CLEAR     42  36  79 CALM      30.12S
SOMERSET       CLEAR     41  36  81 CALM      30.14S
MIDDLESBORO    CLEAR     38  38  99 CALM      30.12S
MONTICELLO     CLEAR     37  37 100 CALM      30.15S
$$




USA.gov is the U.S. government's official web portal to all federal, state and local government web resources and services.